Location: Roland
(31.1349°N, 85.4372°W)
Time: 23:05:48
(UTC+00:00)

S-56A Canister/Altair - Pass Details

Date: 24 April 2021
Orbit: 632 x 2501 km, 38.9° (Epoch: 11 May)

Event Time Altitude Azimuth Distance (km) Brightness Sun altitude
Rises 01:28:32 0° 220° (SW) 5,930 12.2 -15.4°
Reaches altitude 10° 01:32:55 10° 215° (SW) 4,732 11.6 -16.2°
Maximum altitude 01:44:47 48° 147° (SSE) 2,120 9.3 -18.5°
Enters shadow 01:50:57 20° 83° (E) 2,785 9.9 -19.6°
